Regional Weather Roundup
Issued by NWS Bismarck, ND

Home | Current Version | Previous Version | Text Only | Print | Product List | Glossary On
Versions: 1 2 3 4 5 6 7 8 9 10 11 12 13 14 15 16 17 18 19 20 21 22 23 24 25 26 27 28 29 30 31 32 33 34 35 36 37 38 39 40 41 42 43 44 45 46 47 48 49 50
000
ASUS43 KBIS 041202
RWRBIS

NWR BROADCAST TEXT
NATIONAL WEATHER SERVICE BISMARCK ND
700 AM CDT TUE AUG 04 2015

NOTE: "FAIR" INDICATES FEW OR NO CLOUDS BELOW 12,000 FEET WITH NO
SIGNIFICANT WEATHER AND/OR OBSTRUCTIONS TO VISIBILITY.


CITY           SKY/WX    TMP DP  RH WIND       PRES   REMARKS
WILLISTON      PTCLDY    62  50  64 E5        29.96S
MINOT          CLEAR     52  49  89 SW7       30.00R
MINOT AFB      CLEAR     49  49  99 CALM      29.99R
BISMARCK       PTCLDY    52  49  89 E3        30.01R
DICKINSON      PTCLDY    53  48  83 E10       29.96S
GARRISON         N/A     53  50  89 CALM      30.00R
HETTINGER ARPT CLEAR     56  50  80 E8        29.97R
JAMESTOWN      CLEAR     51  50  96 CALM      30.02R
HAZEN          FAIR      46  45  93 CALM      30.00S
OAKES            N/A     52  52 100 CALM      30.02R
STANLEY        FAIR      50  50 100 CALM      30.01R
$$

CITY           SKY/WX    TMP DP  RH WIND       PRES   REMARKS
GRAND FORKS    CLEAR     51  49  92 N5        29.98R
GRAND FORKS AF CLEAR     50  48  92 N2        29.99R
DEVILS LAKE    CLEAR     52  45  76 NE5       30.00R
FARGO          CLEAR     54  47  77 NW3       29.99R
CAVALIER       FAIR      52  50  93 W5        30.01R
GRAFTON        FAIR      52  52 100 NW7       30.01R
GWINNER          N/A     54  50  87 SW9       30.02R
LANGDON        FAIR      43  41  93 CALM      30.03R
$$

CITY           SKY/WX    TMP DP  RH WIND       PRES   REMARKS
ABERDEEN       MOCLDY    56  51  84 CALM      30.02R
MOBRIDGE       MOCLDY    61  56  83 E10       29.95F
RAPID CITY     MOCLDY    63  58  83 S3        29.97R
GLASGOW        PTCLDY    64  47  53 E17       29.86R
SIDNEY         CLEAR     59  48  67 N6        29.94R
WOLF POINT     PTCLDY    61  49  64 E10       29.90S
GLENDIVE         N/A    N/A N/A N/A MISG        N/A
MILES CITY     PTCLDY    64  52  64 NE8       29.88R
BAKER          CLEAR     54  50  86 SE7       29.94S
$$

CITY           SKY/WX    TMP DP  RH WIND       PRES   REMARKS
BILLINGS       MOCLDY    70  47  43 SW8       29.91R
GREAT FALLS    CLOUDY    69  41  36 SW9       29.88R
$$



USA.gov is the U.S. government's official web portal to all federal, state and local government web resources and services.